Time,TemperatureF,DewpointF,PressureIn,WindDirection,WindDirectionDegrees,WindSpeedMPH,WindSpeedGustMPH,Humidity,HourlyPrecipIn,Conditions,Clouds,dailyrainin,SolarRadiationWatts/m^2,SoftwareType,DateUTC
2013-03-04 00:00:00,37.0,30.5,29.44,South,169,2.0,4.0,77,0.00,,---,0.00,0.00,VWS V14.01,2013-03-04 06:00:00,
2013-03-04 00:03:00,38.6,31.4,29.44,SSE,161,9.0,13.0,75,0.00,,---,0.00,0.00,VWS V14.01,2013-03-04 06:03:00,
2013-03-04 00:05:00,36.8,30.6,29.44,SW,223,3.0,4.0,78,0.00,,---,0.00,0.00,VWS V14.01,2013-03-04 06:05:00,
2013-03-04 00:08:00,38.3,31.1,29.44,SW,222,7.0,11.0,75,0.00,,---,0.00,0.00,VWS V14.01,2013-03-04 06:08:00,
2013-03-04 00:10:00,36.8,30.6,29.44,SSW,209,1.0,4.0,78,0.00,,---,0.00,0.00,VWS V14.01,2013-03-04 06:10:00,
2013-03-04 00:13:00,38.3,31.4,29.44,NW,312,8.0,11.0,76,0.00,,---,0.00,0.00,VWS V14.01,2013-03-04 06:13:00,
2013-03-04 00:15:00,36.9,31.0,29.45,SW,215,1.0,3.0,79,0.00,,---,0.00,0.00,VWS V14.01,2013-03-04 06:15:00,
2013-03-04 00:18:00,38.2,31.3,29.44,SSE,168,5.0,12.0,76,0.00,,---,0.00,0.00,VWS V14.01,2013-03-04 06:18:00,
2013-03-04 00:20:00,36.9,30.7,29.45,SSW,198,3.0,5.0,78,0.00,,---,0.00,0.00,VWS V14.01,2013-03-04 06:20:00,
2013-03-04 00:23:00,38.0,31.1,29.44,SSW,196,6.0,7.0,76,0.00,,---,0.00,0.00,VWS V14.01,2013-03-04 06:23:00,
2013-03-04 00:25:00,36.8,30.6,29.45,South,184,5.0,6.0,78,0.00,,---,0.00,0.00,VWS V14.01,2013-03-04 06:25:00,
2013-03-04 00:28:00,37.9,31.0,29.44,NNW,336,4.0,6.0,76,0.00,,---,0.00,0.00,VWS V14.01,2013-03-04 06:28:00,
2013-03-04 00:30:00,36.8,30.9,29.44,SE,141,2.0,6.0,79,0.00,,---,0.00,0.00,VWS V14.01,2013-03-04 06:30:00,
2013-03-04 00:33:00,37.9,31.0,29.44,WNW,284,3.0,7.0,76,0.00,,---,0.00,0.00,VWS V14.01,2013-03-04 06:33:00,
2013-03-04 00:35:00,36.8,30.9,29.44,SSE,147,0.0,2.0,79,0.00,,---,0.00,0.00,VWS V14.01,2013-03-04 06:35:00,
2013-03-04 00:39:00,37.9,31.0,29.44,West,260,2.0,6.0,76,0.00,,---,0.00,0.00,VWS V14.01,2013-03-04 06:39:00,
2013-03-04 00:40:00,36.6,30.4,29.44,SSE,151,0.0,1.0,78,0.00,,---,0.00,0.00,VWS V14.01,2013-03-04 06:40:00,
2013-03-04 00:44:00,37.8,30.9,29.44,SSE,164,3.0,7.0,76,0.00,,---,0.00,0.00,VWS V14.01,2013-03-04 06:44:00,
2013-03-04 00:45:00,36.6,30.7,29.45,SSE,150,0.0,0.0,79,0.00,,---,0.00,0.00,VWS V14.01,2013-03-04 06:45:00,
2013-03-04 00:49:00,37.6,31.1,29.44,NNW,342,3.0,5.0,77,0.00,,---,0.00,0.00,VWS V14.01,2013-03-04 06:49:00,
2013-03-04 00:50:00,36.6,30.7,29.45,South,169,0.0,0.0,79,0.00,,---,0.00,0.00,VWS V14.01,2013-03-04 06:50:00,
2013-03-04 00:54:00,37.3,30.8,29.44,SSE,160,3.0,6.0,77,0.00,,---,0.00,0.00,VWS V14.01,2013-03-04 06:54:00,
2013-03-04 00:55:00,36.5,30.6,29.45,SSE,147,0.0,0.0,79,0.00,,---,0.00,0.00,VWS V14.01,2013-03-04 06:55:00,
2013-03-04 00:59:00,37.0,30.5,29.44,South,169,2.0,4.0,77,0.00,,---,0.00,0.00,VWS V14.01,2013-03-04 06:59:00,
2013-03-04 01:00:00,36.6,30.7,29.44,SSE,160,0.0,0.0,79,0.00,,---,0.00,0.00,VWS V14.01,2013-03-04 07:00:00,
2013-03-04 01:04:00,36.8,30.6,29.44,SW,223,3.0,4.0,78,0.00,,---,0.00,0.00,VWS V14.01,2013-03-04 07:04:00,
2013-03-04 01:05:00,36.6,30.7,29.44,SSE,148,0.0,0.0,79,0.00,,---,0.00,0.00,VWS V14.01,2013-03-04 07:05:00,
2013-03-04 01:09:00,36.8,30.6,29.44,SSW,209,1.0,4.0,78,0.00,,---,0.00,0.00,VWS V14.01,2013-03-04 07:09:00,
2013-03-04 01:10:00,36.3,30.4,29.44,SSE,150,0.0,0.0,79,0.00,,---,0.00,0.00,VWS V14.01,2013-03-04 07:10:00,
2013-03-04 01:14:00,36.9,31.0,29.45,SW,215,1.0,3.0,79,0.00,,---,0.00,0.00,VWS V14.01,2013-03-04 07:14:00,
2013-03-04 01:15:00,36.2,30.3,29.44,SSE,147,0.0,0.0,79,0.00,,---,0.00,0.00,VWS V14.01,2013-03-04 07:15:00,
2013-03-04 01:19:00,36.9,30.7,29.45,SSW,212,5.0,5.0,78,0.00,,---,0.00,0.00,VWS V14.01,2013-03-04 07:19:00,
2013-03-04 01:24:00,36.8,30.6,29.45,SSE,150,5.0,5.0,78,0.00,,---,0.00,0.00,VWS V14.01,2013-03-04 07:24:00,
2013-03-04 01:25:00,36.0,30.1,29.44,SSW,195,0.0,0.0,79,0.00,,---,0.00,0.00,VWS V14.01,2013-03-04 07:25:00,
2013-03-04 01:29:00,36.8,30.9,29.44,SSE,148,2.0,2.0,79,0.00,,---,0.00,0.00,VWS V14.01,2013-03-04 07:29:00,
2013-03-04 01:30:00,35.9,30.0,29.44,SSE,150,0.0,0.0,79,0.00,,---,0.00,0.00,VWS V14.01,2013-03-04 07:30:00,
2013-03-04 01:34:00,36.8,30.9,29.44,SE,144,0.0,0.0,79,0.00,,---,0.00,0.00,VWS V14.01,2013-03-04 07:34:00,
2013-03-04 01:35:00,35.9,30.3,29.44,SSE,152,0.0,0.0,80,0.00,,---,0.00,0.00,VWS V14.01,2013-03-04 07:35:00,
2013-03-04 01:39:00,36.6,30.7,29.44,SSE,148,0.0,0.0,79,0.00,,---,0.00,0.00,VWS V14.01,2013-03-04 07:39:00,
2013-03-04 01:45:00,36.6,30.7,29.45,SSE,151,0.0,0.0,79,0.00,,---,0.00,0.00,VWS V14.01,2013-03-04 07:45:00,
2013-03-04 01:50:00,36.6,30.7,29.45,SSE,151,0.0,0.0,79,0.00,,---,0.00,0.00,VWS V14.01,2013-03-04 07:50:00,
2013-03-04 01:55:00,36.5,30.6,29.45,SSE,155,0.0,0.0,79,0.00,,---,0.00,0.00,VWS V14.01,2013-03-04 07:55:00,
2013-03-04 02:00:00,36.6,30.7,29.44,SSE,155,0.0,0.0,79,0.00,,---,0.00,0.00,VWS V14.01,2013-03-04 08:00:00,
2013-03-04 02:05:00,36.5,30.6,29.44,SSE,155,0.0,0.0,79,0.00,,---,0.00,0.00,VWS V14.01,2013-03-04 08:05:00,
2013-03-04 02:10:00,36.3,30.4,29.44,SSE,157,0.0,0.0,79,0.00,,---,0.00,0.00,VWS V14.01,2013-03-04 08:10:00,
2013-03-04 02:15:00,36.2,30.6,29.44,SSE,152,0.0,0.0,80,0.00,,---,0.00,0.00,VWS V14.01,2013-03-04 08:15:00,
2013-03-04 02:21:00,36.3,30.4,29.44,SE,144,0.0,0.0,79,0.00,,---,0.00,0.00,VWS V14.01,2013-03-04 08:21:00,
2013-03-04 02:25:00,35.5,30.0,29.42,North,349,4.0,6.0,80,0.00,,---,0.00,0.00,VWS V14.01,2013-03-04 08:25:00,
2013-03-04 02:26:00,35.9,30.0,29.44,SSE,161,0.0,0.0,79,0.00,,---,0.00,0.00,VWS V14.01,2013-03-04 08:26:00,
2013-03-04 02:31:00,35.9,30.3,29.44,SE,143,0.0,0.0,80,0.00,,---,0.00,0.00,VWS V14.01,2013-03-04 08:31:00,
2013-03-04 02:36:00,35.9,30.3,29.44,SSE,165,0.0,0.0,80,0.00,,---,0.00,0.00,VWS V14.01,2013-03-04 08:36:00,
2013-03-04 02:40:00,33.8,28.9,29.43,North,0,6.0,8.0,82,0.00,,---,0.00,0.00,VWS V14.01,2013-03-04 08:40:00,
2013-03-04 02:41:00,36.0,30.8,29.44,SSE,151,0.0,0.0,81,0.00,,---,0.00,0.00,VWS V14.01,2013-03-04 08:41:00,
2013-03-04 02:45:00,33.7,28.8,29.44,North,0,5.0,6.0,82,0.00,,---,0.00,0.00,VWS V14.01,2013-03-04 08:45:00,
2013-03-04 02:46:00,36.3,30.7,29.44,SSE,155,0.0,0.0,80,0.00,,---,0.00,0.00,VWS V14.01,2013-03-04 08:46:00,
2013-03-04 02:50:00,33.7,29.1,29.44,North,0,5.0,6.0,83,0.00,,---,0.00,0.00,VWS V14.01,2013-03-04 08:50:00,
2013-03-04 02:51:00,35.9,30.3,29.44,SSE,150,0.0,0.0,80,0.00,,---,0.00,0.00,VWS V14.01,2013-03-04 08:51:00,
2013-03-04 02:55:00,34.0,29.4,29.44,NW,320,6.0,6.0,83,0.00,,---,0.00,0.00,VWS V14.01,2013-03-04 08:55:00,
2013-03-04 02:57:00,35.5,30.0,29.44,SSE,148,0.0,0.0,80,0.00,,---,0.00,0.00,VWS V14.01,2013-03-04 08:57:00,
2013-03-04 03:02:00,35.3,30.1,29.42,SE,145,0.0,0.0,81,0.00,,---,0.00,0.00,VWS V14.01,2013-03-04 09:02:00,
2013-03-04 03:07:00,35.3,30.1,29.42,SSE,158,0.0,0.0,81,0.00,,---,0.00,0.00,VWS V14.01,2013-03-04 09:07:00,
2013-03-04 03:10:00,34.6,30.0,29.44,ENE,65,7.0,7.0,83,0.00,,---,0.00,0.00,VWS V14.01,2013-03-04 09:10:00,
2013-03-04 03:12:00,35.5,30.3,29.42,SSE,154,0.0,0.0,81,0.00,,---,0.00,0.00,VWS V14.01,2013-03-04 09:12:00,
2013-03-04 03:15:00,34.7,30.1,29.45,West,268,6.0,8.0,83,0.00,,---,0.00,0.00,VWS V14.01,2013-03-04 09:15:00,
2013-03-04 03:17:00,35.8,30.9,29.42,SSE,158,0.0,0.0,82,0.00,,---,0.00,0.00,VWS V14.01,2013-03-04 09:17:00,
2013-03-04 03:20:00,34.6,30.0,29.45,SW,219,3.0,8.0,83,0.00,,---,0.00,0.00,VWS V14.01,2013-03-04 09:20:00,
2013-03-04 03:22:00,35.8,30.5,29.42,North,357,6.0,6.0,81,0.00,,---,0.00,0.00,VWS V14.01,2013-03-04 09:22:00,
2013-03-04 03:25:00,34.3,29.7,29.45,NNE,31,6.0,7.0,83,0.00,,---,0.00,0.00,VWS V14.01,2013-03-04 09:25:00,
2013-03-04 03:27:00,35.0,29.8,29.42,NNW,335,6.0,6.0,81,0.00,,---,0.00,0.00,VWS V14.01,2013-03-04 09:27:00,
2013-03-04 03:32:00,34.4,29.2,29.43,North,0,7.0,8.0,81,0.00,,---,0.00,0.00,VWS V14.01,2013-03-04 09:32:00,
2013-03-04 03:35:00,34.0,29.4,29.45,NE,51,5.0,7.0,83,0.00,,---,0.00,0.00,VWS V14.01,2013-03-04 09:35:00,
2013-03-04 03:37:00,34.0,29.1,29.43,North,0,7.0,8.0,82,0.00,,---,0.00,0.00,VWS V14.01,2013-03-04 09:37:00,
2013-03-04 03:40:00,34.1,29.8,29.45,North,0,6.0,6.0,84,0.00,,---,0.00,0.00,VWS V14.01,2013-03-04 09:40:00,
2013-03-04 03:43:00,33.8,28.9,29.43,North,0,5.0,6.0,82,0.00,,---,0.00,0.00,VWS V14.01,2013-03-04 09:43:00,
2013-03-04 03:45:00,34.0,29.7,29.45,North,0,6.0,7.0,84,0.00,,---,0.00,0.00,VWS V14.01,2013-03-04 09:45:00,
2013-03-04 03:48:00,33.7,29.1,29.44,North,0,5.0,6.0,83,0.00,,---,0.00,0.00,VWS V14.01,2013-03-04 09:48:00,
2013-03-04 03:50:00,34.0,29.7,29.45,NW,320,5.0,7.0,84,0.00,,---,0.00,0.00,VWS V14.01,2013-03-04 09:50:00,
2013-03-04 03:53:00,33.8,29.2,29.44,North,0,6.0,6.0,83,0.00,,---,0.00,0.00,VWS V14.01,2013-03-04 09:53:00,
2013-03-04 03:55:00,34.1,29.8,29.45,North,354,5.0,5.0,84,0.00,,---,0.00,0.00,VWS V14.01,2013-03-04 09:55:00,
2013-03-04 03:58:00,34.4,29.8,29.44,SSE,162,8.0,8.0,83,0.00,,---,0.00,0.00,VWS V14.01,2013-03-04 09:58:00,
2013-03-04 04:00:00,34.3,30.0,29.45,NW,309,5.0,6.0,84,0.00,,---,0.00,0.00,VWS V14.01,2013-03-04 10:00:00,
2013-03-04 04:03:00,34.6,30.0,29.44,SW,224,7.0,8.0,83,0.00,,---,0.00,0.00,VWS V14.01,2013-03-04 10:03:00,
2013-03-04 04:05:00,34.3,30.0,29.45,North,0,5.0,5.0,84,0.00,,---,0.00,0.00,VWS V14.01,2013-03-04 10:05:00,
2013-03-04 04:08:00,34.6,30.0,29.44,South,176,3.0,7.0,83,0.00,,---,0.00,0.00,VWS V14.01,2013-03-04 10:08:00,
2013-03-04 04:10:00,34.4,30.1,29.45,SSE,150,5.0,6.0,84,0.00,,---,0.00,0.00,VWS V14.01,2013-03-04 10:10:00,
2013-03-04 04:13:00,34.7,30.1,29.45,NNE,31,6.0,8.0,83,0.00,,---,0.00,0.00,VWS V14.01,2013-03-04 10:13:00,
2013-03-04 04:15:00,34.3,30.0,29.45,NE,44,5.0,5.0,84,0.00,,---,0.00,0.00,VWS V14.01,2013-03-04 10:15:00,
2013-03-04 04:18:00,34.6,30.0,29.45,NW,323,6.0,8.0,83,0.00,,---,0.00,0.00,VWS V14.01,2013-03-04 10:18:00,
2013-03-04 04:20:00,34.3,30.0,29.45,ESE,114,3.0,5.0,84,0.00,,---,0.00,0.00,VWS V14.01,2013-03-04 10:20:00,
2013-03-04 04:23:00,34.3,29.7,29.45,NE,38,6.0,6.0,83,0.00,,---,0.00,0.00,VWS V14.01,2013-03-04 10:23:00,
2013-03-04 04:25:00,34.3,30.0,29.45,WSW,237,3.0,5.0,84,0.00,,---,0.00,0.00,VWS V14.01,2013-03-04 10:25:00,
2013-03-04 04:29:00,34.1,29.5,29.45,SSW,203,7.0,8.0,83,0.00,,---,0.00,0.00,VWS V14.01,2013-03-04 10:29:00,
2013-03-04 04:30:00,34.3,30.0,29.46,East,90,5.0,5.0,84,0.00,,---,0.00,0.00,VWS V14.01,2013-03-04 10:30:00,
2013-03-04 04:34:00,34.0,29.4,29.45,ESE,120,5.0,7.0,83,0.00,,---,0.00,0.00,VWS V14.01,2013-03-04 10:34:00,
2013-03-04 04:35:00,34.3,30.0,29.46,East,85,3.0,5.0,84,0.00,,---,0.00,0.00,VWS V14.01,2013-03-04 10:35:00,
2013-03-04 04:39:00,34.1,29.8,29.45,North,0,6.0,6.0,84,0.00,,---,0.00,0.00,VWS V14.01,2013-03-04 10:39:00,
2013-03-04 04:44:00,34.0,29.7,29.45,North,0,6.0,7.0,84,0.00,,---,0.00,0.00,VWS V14.01,2013-03-04 10:44:00,
2013-03-04 04:45:00,34.1,29.8,29.46,NW,316,3.0,6.0,84,0.00,,---,0.00,0.00,VWS V14.01,2013-03-04 10:45:00,
2013-03-04 04:49:00,34.0,29.7,29.45,NW,320,5.0,7.0,84,0.00,,---,0.00,0.00,VWS V14.01,2013-03-04 10:49:00,
2013-03-04 04:50:00,34.1,29.8,29.46,WNW,284,4.0,5.0,84,0.00,,---,0.00,0.00,VWS V14.01,2013-03-04 10:50:00,
2013-03-04 04:54:00,34.1,29.8,29.45,North,354,5.0,5.0,84,0.00,,---,0.00,0.00,VWS V14.01,2013-03-04 10:54:00,
2013-03-04 04:55:00,34.1,29.8,29.46,SSE,165,3.0,5.0,84,0.00,,---,0.00,0.00,VWS V14.01,2013-03-04 10:55:00,
2013-03-04 04:59:00,34.3,30.0,29.45,NW,313,5.0,5.0,84,0.00,,---,0.00,0.00,VWS V14.01,2013-03-04 10:59:00,
2013-03-04 05:00:00,34.0,29.7,29.45,West,277,5.0,5.0,84,0.00,,---,0.00,0.00,VWS V14.01,2013-03-04 11:00:00,
2013-03-04 05:04:00,34.3,30.0,29.45,North,0,5.0,5.0,84,0.00,,---,0.00,0.00,VWS V14.01,2013-03-04 11:04:00,
2013-03-04 05:05:00,34.0,29.7,29.45,ENE,59,5.0,5.0,84,0.00,,---,0.00,0.00,VWS V14.01,2013-03-04 11:05:00,
2013-03-04 05:09:00,34.4,30.1,29.45,ENE,65,4.0,5.0,84,0.00,,---,0.00,0.00,VWS V14.01,2013-03-04 11:09:00,
2013-03-04 05:10:00,33.8,29.5,29.45,NE,52,6.0,6.0,84,0.00,,---,0.00,0.00,VWS V14.01,2013-03-04 11:10:00,
2013-03-04 05:14:00,34.3,30.0,29.45,NE,47,5.0,5.0,84,0.00,,---,0.00,0.00,VWS V14.01,2013-03-04 11:14:00,
2013-03-04 05:15:00,33.7,29.4,29.46,NE,49,5.0,6.0,84,0.00,,---,0.00,0.00,VWS V14.01,2013-03-04 11:15:00,
2013-03-04 05:19:00,34.3,30.0,29.45,SSE,162,3.0,4.0,84,0.00,,---,0.00,0.00,VWS V14.01,2013-03-04 11:19:00,
2013-03-04 05:20:00,33.5,29.2,29.46,ENE,58,4.0,5.0,84,0.00,,---,0.00,0.00,VWS V14.01,2013-03-04 11:20:00,
2013-03-04 05:25:00,34.3,30.0,29.45,SW,216,4.0,4.0,84,0.00,,---,0.00,0.00,VWS V14.01,2013-03-04 11:25:00,
2013-03-04 05:30:00,34.4,30.1,29.46,ESE,102,4.0,5.0,84,0.00,,---,0.00,0.00,VWS V14.01,2013-03-04 11:30:00,
2013-03-04 05:35:00,34.3,30.0,29.46,East,99,4.0,4.0,84,0.00,,---,0.00,0.00,VWS V14.01,2013-03-04 11:35:00,
2013-03-04 05:40:00,34.1,29.8,29.46,NE,51,5.0,5.0,84,0.00,,---,0.00,0.00,VWS V14.01,2013-03-04 11:40:00,
2013-03-04 05:45:00,34.1,29.8,29.46,WNW,282,3.0,5.0,84,0.00,,---,0.00,0.00,VWS V14.01,2013-03-04 11:45:00,
2013-03-04 05:50:00,34.3,30.0,29.46,North,354,3.0,4.0,84,0.00,,---,0.00,0.00,VWS V14.01,2013-03-04 11:50:00,
2013-03-04 05:55:00,34.1,29.8,29.46,SSE,152,3.0,5.0,84,0.00,,---,0.00,0.00,VWS V14.01,2013-03-04 11:55:00,
2013-03-04 06:00:00,34.0,29.7,29.45,ENE,66,5.0,5.0,84,0.00,,---,0.00,0.00,VWS V14.01,2013-03-04 12:00:00,
2013-03-04 06:05:00,34.0,29.7,29.45,ENE,61,5.0,6.0,84,0.00,,---,0.00,0.00,VWS V14.01,2013-03-04 12:05:00,
2013-03-04 06:10:00,32.8,29.1,29.46,North,353,6.0,6.0,86,0.00,,---,0.00,11.00,VWS V14.01,2013-03-04 12:10:00,
2013-03-04 06:11:00,33.8,29.5,29.45,NE,51,5.0,6.0,84,0.00,,---,0.00,0.00,VWS V14.01,2013-03-04 12:11:00,
2013-03-04 06:15:00,33.1,29.4,29.47,ESE,113,6.0,7.0,86,0.00,,---,0.00,18.00,VWS V14.01,2013-03-04 12:15:00,
2013-03-04 06:16:00,33.5,29.2,29.46,SW,233,5.0,5.0,84,0.00,,---,0.00,0.00,VWS V14.01,2013-03-04 12:16:00,
2013-03-04 06:20:00,33.4,29.7,29.47,ESE,117,7.0,8.0,86,0.00,,---,0.00,25.00,VWS V14.01,2013-03-04 12:20:00,
2013-03-04 06:21:00,33.5,29.2,29.46,NE,55,4.0,5.0,84,0.00,,---,0.00,0.00,VWS V14.01,2013-03-04 12:21:00,
2013-03-04 06:25:00,33.5,29.8,29.47,SSE,147,6.0,8.0,86,0.00,,---,0.00,30.00,VWS V14.01,2013-03-04 12:25:00,
2013-03-04 06:26:00,33.4,29.4,29.46,NE,55,3.0,3.0,85,0.00,,---,0.00,0.00,VWS V14.01,2013-03-04 12:26:00,
2013-03-04 06:30:00,33.8,30.1,29.48,SE,127,6.0,7.0,86,0.00,,---,0.00,40.00,VWS V14.01,2013-03-04 12:30:00,
2013-03-04 06:31:00,33.5,29.5,29.46,ENE,66,4.0,5.0,85,0.00,,---,0.00,0.00,VWS V14.01,2013-03-04 12:31:00,
2013-03-04 06:35:00,34.1,30.1,29.48,North,0,6.0,6.0,85,0.00,,---,0.00,81.00,VWS V14.01,2013-03-04 12:35:00,
2013-03-04 06:36:00,33.4,29.4,29.46,ENE,71,3.0,3.0,85,0.00,,---,0.00,0.00,VWS V14.01,2013-03-04 12:36:00,
2013-03-04 06:40:00,33.4,29.1,29.48,WNW,299,7.0,8.0,84,0.00,,---,0.00,104.00,VWS V14.01,2013-03-04 12:40:00,
2013-03-04 06:41:00,33.5,29.5,29.46,SE,127,2.0,5.0,85,0.00,,---,0.00,0.00,VWS V14.01,2013-03-04 12:41:00,
2013-03-04 06:45:00,32.9,28.9,29.49,WNW,292,5.0,8.0,85,0.00,,---,0.00,132.00,VWS V14.01,2013-03-04 12:45:00,
2013-03-04 06:46:00,33.5,29.5,29.46,NW,316,5.0,6.0,85,0.00,,---,0.00,0.00,VWS V14.01,2013-03-04 12:46:00,
2013-03-04 06:50:00,32.8,28.8,29.49,WNW,282,5.0,7.0,85,0.00,,---,0.00,74.00,VWS V14.01,2013-03-04 12:50:00,
2013-03-04 06:51:00,32.9,28.9,29.46,ENE,71,3.0,5.0,85,0.00,,---,0.00,0.00,VWS V14.01,2013-03-04 12:51:00,
2013-03-04 06:55:00,32.5,28.5,29.49,WNW,289,6.0,8.0,85,0.00,,---,0.00,84.00,VWS V14.01,2013-03-04 12:55:00,
2013-03-04 06:56:00,32.8,28.8,29.46,ENE,71,2.0,5.0,85,0.00,,---,0.00,0.00,VWS V14.01,2013-03-04 12:56:00,
2013-03-04 07:00:00,32.2,28.5,29.51,WNW,289,6.0,8.0,86,0.00,,---,0.00,97.00,VWS V14.01,2013-03-04 13:00:00,
2013-03-04 07:02:00,32.8,29.1,29.46,ENE,64,2.0,3.0,86,0.00,,---,0.00,7.00,VWS V14.01,2013-03-04 13:02:00,
2013-03-04 07:05:00,32.1,28.4,29.51,WNW,296,6.0,10.0,86,0.00,,---,0.00,116.00,VWS V14.01,2013-03-04 13:05:00,
2013-03-04 07:07:00,32.8,29.1,29.46,WNW,295,5.0,5.0,86,0.00,,---,0.00,11.00,VWS V14.01,2013-03-04 13:07:00,
2013-03-04 07:10:00,31.9,28.2,29.51,WNW,296,7.0,11.0,86,0.00,,---,0.00,91.00,VWS V14.01,2013-03-04 13:10:00,
2013-03-04 07:12:00,32.9,29.2,29.46,SSE,160,6.0,7.0,86,0.00,,---,0.00,11.00,VWS V14.01,2013-03-04 13:12:00,
2013-03-04 07:15:00,32.1,28.7,29.51,WNW,296,6.0,8.0,87,0.00,,---,0.00,120.00,VWS V14.01,2013-03-04 13:15:00,
2013-03-04 07:17:00,33.2,29.5,29.47,SE,138,7.0,8.0,86,0.00,,---,0.00,18.00,VWS V14.01,2013-03-04 13:17:00,
2013-03-04 07:20:00,32.2,28.8,29.51,WNW,302,5.0,6.0,87,0.00,,---,0.00,93.00,VWS V14.01,2013-03-04 13:20:00,
2013-03-04 07:22:00,33.5,29.5,29.47,SE,141,7.0,8.0,85,0.00,,---,0.00,30.00,VWS V14.01,2013-03-04 13:22:00,
2013-03-04 07:25:00,32.4,29.0,29.51,NW,323,6.0,10.0,87,0.00,,---,0.00,97.00,VWS V14.01,2013-03-04 13:25:00,
2013-03-04 07:27:00,33.7,30.0,29.47,SW,226,6.0,7.0,86,0.00,,---,0.00,40.00,VWS V14.01,2013-03-04 13:27:00,
2013-03-04 07:30:00,32.5,29.4,29.51,North,0,6.0,10.0,88,0.00,,---,0.00,102.00,VWS V14.01,2013-03-04 13:30:00,
2013-03-04 07:32:00,34.1,30.1,29.48,SSW,206,1.0,6.0,85,0.00,,---,0.00,74.00,VWS V14.01,2013-03-04 13:32:00,
2013-03-04 07:35:00,32.9,29.7,29.51,NW,311,4.0,11.0,88,0.00,,---,0.00,111.00,VWS V14.01,2013-03-04 13:35:00,
2013-03-04 07:37:00,33.7,29.4,29.48,WNW,296,7.0,8.0,84,0.00,,---,0.00,95.00,VWS V14.01,2013-03-04 13:37:00,
2013-03-04 07:40:00,33.1,29.9,29.51,WNW,291,5.0,8.0,88,0.00,,---,0.00,111.00,VWS V14.01,2013-03-04 13:40:00,
2013-03-04 07:42:00,32.9,28.9,29.48,WNW,294,4.0,8.0,85,0.00,,---,0.00,127.00,VWS V14.01,2013-03-04 13:42:00,
2013-03-04 07:45:00,33.2,30.0,29.52,WNW,292,5.0,9.0,88,0.00,,---,0.00,127.00,VWS V14.01,2013-03-04 13:45:00,
2013-03-04 07:47:00,32.9,28.9,29.49,WNW,284,3.0,7.0,85,0.00,,---,0.00,77.00,VWS V14.01,2013-03-04 13:47:00,
2013-03-04 07:50:00,33.4,30.2,29.52,NW,306,8.0,10.0,88,0.00,,---,0.00,194.00,VWS V14.01,2013-03-04 13:50:00,
2013-03-04 07:52:00,32.7,28.7,29.49,WNW,302,7.0,8.0,85,0.00,,---,0.00,77.00,VWS V14.01,2013-03-04 13:52:00,
2013-03-04 07:55:00,33.8,30.9,29.52,WNW,301,7.0,13.0,89,0.00,,---,0.00,338.00,VWS V14.01,2013-03-04 13:55:00,
2013-03-04 07:57:00,32.4,28.7,29.49,NNW,333,7.0,8.0,86,0.00,,---,0.00,93.00,VWS V14.01,2013-03-04 13:57:00,
2013-03-04 08:00:00,34.6,31.7,29.52,WNW,299,11.0,12.0,89,0.00,,---,0.00,341.00,VWS V14.01,2013-03-04 14:00:00,
2013-03-04 08:02:00,32.2,28.5,29.51,WNW,288,7.0,8.0,86,0.00,,---,0.00,114.00,VWS V14.01,2013-03-04 14:02:00,
2013-03-04 08:05:00,35.5,32.6,29.52,WNW,296,11.0,16.0,89,0.00,,---,0.00,336.00,VWS V14.01,2013-03-04 14:05:00,
2013-03-04 08:07:00,32.1,28.4,29.51,WNW,295,6.0,11.0,86,0.00,,---,0.00,88.00,VWS V14.01,2013-03-04 14:07:00,
2013-03-04 08:10:00,35.9,32.7,29.52,North,359,7.0,14.0,88,0.00,,---,0.00,334.00,VWS V14.01,2013-03-04 14:10:00,
2013-03-04 08:12:00,31.9,28.5,29.51,WNW,289,6.0,8.0,87,0.00,,---,0.00,99.00,VWS V14.01,2013-03-04 14:12:00,
2013-03-04 08:15:00,36.3,32.8,29.52,WNW,299,14.0,17.0,87,0.00,,---,0.00,350.00,VWS V14.01,2013-03-04 14:15:00,
2013-03-04 08:18:00,32.1,28.7,29.51,NW,315,4.0,6.0,87,0.00,,---,0.00,93.00,VWS V14.01,2013-03-04 14:18:00,
2013-03-04 08:20:00,36.8,33.0,29.52,NNW,342,7.0,16.0,86,0.00,,---,0.00,366.00,VWS V14.01,2013-03-04 14:20:00,
2013-03-04 08:23:00,32.2,28.8,29.51,NNW,347,7.0,8.0,87,0.00,,---,0.00,95.00,VWS V14.01,2013-03-04 14:23:00,
2013-03-04 08:25:00,37.6,33.8,29.52,NW,320,11.0,18.0,86,0.00,,---,0.00,384.00,VWS V14.01,2013-03-04 14:25:00,
2013-03-04 08:28:00,32.5,29.4,29.51,NW,320,7.0,10.0,88,0.00,,---,0.00,102.00,VWS V14.01,2013-03-04 14:28:00,
2013-03-04 08:30:00,38.5,34.4,29.53,North,0,11.0,14.0,85,0.00,,---,0.00,401.00,VWS V14.01,2013-03-04 14:30:00,
2013-03-04 08:33:00,32.8,29.6,29.51,NW,305,6.0,11.0,88,0.00,,---,0.00,109.00,VWS V14.01,2013-03-04 14:33:00,
2013-03-04 08:35:00,39.3,34.6,29.53,North,0,14.0,22.0,83,0.00,,---,0.00,417.00,VWS V14.01,2013-03-04 14:35:00,
2013-03-04 08:38:00,33.1,29.9,29.51,WNW,291,7.0,8.0,88,0.00,,---,0.00,113.00,VWS V14.01,2013-03-04 14:38:00,
2013-03-04 08:40:00,39.9,34.9,29.53,North,353,11.0,20.0,82,0.00,,---,0.00,431.00,VWS V14.01,2013-03-04 14:40:00,
2013-03-04 08:43:00,33.2,30.0,29.51,WNW,291,7.0,9.0,88,0.00,,---,0.00,118.00,VWS V14.01,2013-03-04 14:43:00,
2013-03-04 08:45:00,40.3,34.6,29.53,North,0,16.0,21.0,80,0.00,,---,0.00,449.00,VWS V14.01,2013-03-04 14:45:00,
2013-03-04 08:48:00,33.2,30.0,29.52,WNW,296,8.0,9.0,88,0.00,,---,0.00,162.00,VWS V14.01,2013-03-04 14:48:00,
2013-03-04 08:50:00,40.5,34.5,29.53,WNW,298,13.0,19.0,79,0.00,,---,0.00,461.00,VWS V14.01,2013-03-04 14:50:00,
2013-03-04 08:53:00,33.7,30.8,29.52,NW,305,7.0,13.0,89,0.00,,---,0.00,317.00,VWS V14.01,2013-03-04 14:53:00,
2013-03-04 08:55:00,40.9,34.9,29.53,North,0,10.0,19.0,79,0.00,,---,0.00,479.00,VWS V14.01,2013-03-04 14:55:00,
2013-03-04 08:58:00,34.6,31.7,29.52,WNW,298,8.0,12.0,89,0.00,,---,0.00,338.00,VWS V14.01,2013-03-04 14:58:00,
2013-03-04 09:00:00,41.3,35.0,29.54,North,359,13.0,20.0,78,0.00,,---,0.00,392.00,VWS V14.01,2013-03-04 15:00:00,
2013-03-04 09:03:00,35.5,32.6,29.52,NNW,333,16.0,16.0,89,0.00,,---,0.00,347.00,VWS V14.01,2013-03-04 15:03:00,
2013-03-04 09:05:00,41.5,34.8,29.54,NNW,336,16.0,25.0,77,0.00,,---,0.00,352.00,VWS V14.01,2013-03-04 15:05:00,
2013-03-04 09:08:00,35.9,32.7,29.52,NW,319,9.0,14.0,88,0.00,,---,0.00,334.00,VWS V14.01,2013-03-04 15:08:00,
2013-03-04 09:10:00,41.3,35.0,29.54,WNW,294,15.0,27.0,78,0.00,,---,0.00,294.00,VWS V14.01,2013-03-04 15:10:00,
2013-03-04 09:14:00,36.2,32.7,29.52,NNW,340,14.0,17.0,87,0.00,,---,0.00,350.00,VWS V14.01,2013-03-04 15:14:00,
2013-03-04 09:15:00,41.3,35.0,29.55,North,0,16.0,22.0,78,0.00,,---,0.00,301.00,VWS V14.01,2013-03-04 15:15:00,
2013-03-04 09:19:00,36.8,33.0,29.52,North,0,14.0,16.0,86,0.00,,---,0.00,366.00,VWS V14.01,2013-03-04 15:19:00,
2013-03-04 09:20:00,41.2,34.9,29.55,NNW,337,18.0,22.0,78,0.00,,---,0.00,239.00,VWS V14.01,2013-03-04 15:20:00,
2013-03-04 09:24:00,37.6,33.8,29.52,NW,320,11.0,18.0,86,0.00,,---,0.00,384.00,VWS V14.01,2013-03-04 15:24:00,
2013-03-04 09:25:00,41.2,35.2,29.55,North,350,20.0,24.0,79,0.00,,---,0.00,230.00,VWS V14.01,2013-03-04 15:25:00,
2013-03-04 09:29:00,38.5,34.4,29.53,North,0,11.0,14.0,85,0.00,,---,0.00,401.00,VWS V14.01,2013-03-04 15:29:00,
2013-03-04 09:30:00,41.2,35.2,29.55,North,352,17.0,22.0,79,0.00,,---,0.00,239.00,VWS V14.01,2013-03-04 15:30:00,
2013-03-04 09:34:00,39.3,34.6,29.53,North,0,14.0,22.0,83,0.00,,---,0.00,417.00,VWS V14.01,2013-03-04 15:34:00,
2013-03-04 09:35:00,41.3,35.3,29.55,North,352,22.0,26.0,79,0.00,,---,0.00,252.00,VWS V14.01,2013-03-04 15:35:00,
2013-03-04 09:39:00,39.9,34.9,29.53,North,353,11.0,20.0,82,0.00,,---,0.00,431.00,VWS V14.01,2013-03-04 15:39:00,
2013-03-04 09:40:00,41.5,35.8,29.55,North,0,17.0,25.0,80,0.00,,---,0.00,236.00,VWS V14.01,2013-03-04 15:40:00,
2013-03-04 09:44:00,40.3,34.6,29.53,North,0,16.0,21.0,80,0.00,,---,0.00,449.00,VWS V14.01,2013-03-04 15:44:00,
2013-03-04 09:45:00,41.6,35.9,29.55,North,0,16.0,24.0,80,0.00,,---,0.00,245.00,VWS V14.01,2013-03-04 15:45:00,
2013-03-04 09:49:00,40.5,34.5,29.53,North,349,14.0,14.0,79,0.00,,---,0.00,461.00,VWS V14.01,2013-03-04 15:49:00,
2013-03-04 09:50:00,41.6,35.6,29.55,NW,319,19.0,25.0,79,0.00,,---,0.00,252.00,VWS V14.01,2013-03-04 15:50:00,
2013-03-04 09:54:00,40.9,34.9,29.53,North,0,11.0,12.0,79,0.00,,---,0.00,479.00,VWS V14.01,2013-03-04 15:54:00,
2013-03-04 09:55:00,41.6,35.6,29.55,North,0,21.0,27.0,79,0.00,,---,0.00,241.00,VWS V14.01,2013-03-04 15:55:00,
2013-03-04 09:59:00,41.3,35.0,29.54,North,0,14.0,17.0,78,0.00,,---,0.00,392.00,VWS V14.01,2013-03-04 15:59:00,
2013-03-04 10:00:00,41.6,35.6,29.55,NNW,343,21.0,25.0,79,0.00,,---,0.00,239.00,VWS V14.01,2013-03-04 16:00:00,
2013-03-04 10:04:00,41.5,34.8,29.54,North,353,16.0,21.0,77,0.00,,---,0.00,352.00,VWS V14.01,2013-03-04 16:04:00,
2013-03-04 10:05:00,41.6,35.6,29.55,North,0,16.0,26.0,79,0.00,,---,0.00,264.00,VWS V14.01,2013-03-04 16:05:00,
2013-03-04 10:09:00,41.3,35.0,29.54,North,350,19.0,20.0,78,0.00,,---,0.00,320.00,VWS V14.01,2013-03-04 16:09:00,
2013-03-04 10:10:00,41.6,35.6,29.55,NNW,329,21.0,26.0,79,0.00,,---,0.00,301.00,VWS V14.01,2013-03-04 16:10:00,
2013-03-04 10:14:00,41.3,35.0,29.55,North,0,14.0,18.0,78,0.00,,---,0.00,280.00,VWS V14.01,2013-03-04 16:14:00,
2013-03-04 10:15:00,41.6,35.6,29.56,NW,312,29.0,29.0,79,0.00,,---,0.00,236.00,VWS V14.01,2013-03-04 16:15:00,
2013-03-04 10:20:00,41.2,34.9,29.55,North,359,12.0,18.0,78,0.00,,---,0.00,250.00,VWS V14.01,2013-03-04 16:20:00,
2013-03-04 10:25:00,41.2,35.2,29.55,North,0,20.0,22.0,79,0.00,,---,0.00,236.00,VWS V14.01,2013-03-04 16:25:00,
2013-03-04 10:30:00,41.2,35.2,29.55,North,357,14.0,26.0,79,0.00,,---,0.00,218.00,VWS V14.01,2013-03-04 16:30:00,
2013-03-04 10:35:00,41.3,35.3,29.55,North,357,24.0,24.0,79,0.00,,---,0.00,222.00,VWS V14.01,2013-03-04 16:35:00,
2013-03-04 10:40:00,41.5,35.8,29.55,North,0,18.0,22.0,80,0.00,,---,0.00,262.00,VWS V14.01,2013-03-04 16:40:00,
2013-03-04 10:45:00,41.6,35.6,29.55,NNW,339,24.0,25.0,79,0.00,,---,0.00,208.00,VWS V14.01,2013-03-04 16:45:00,
2013-03-04 10:50:00,41.6,35.6,29.55,North,0,19.0,25.0,79,0.00,,---,0.00,232.00,VWS V14.01,2013-03-04 16:50:00,
2013-03-04 10:55:00,41.6,35.6,29.55,NNE,27,18.0,22.0,79,0.00,,---,0.00,255.00,VWS V14.01,2013-03-04 16:55:00,
2013-03-04 11:00:00,41.6,35.6,29.55,North,359,19.0,21.0,79,0.00,,---,0.00,232.00,VWS V14.01,2013-03-04 17:00:00,
2013-03-04 11:05:00,41.6,35.3,29.56,NE,44,27.0,28.0,78,0.00,,---,0.00,229.00,VWS V14.01,2013-03-04 17:05:00,
2013-03-04 11:06:00,41.8,35.8,29.55,North,0,21.0,21.0,79,0.00,,---,0.00,246.00,VWS V14.01,2013-03-04 17:06:00,
2013-03-04 11:10:00,41.6,34.9,29.56,North,359,14.0,27.0,77,0.00,,---,0.00,227.00,VWS V14.01,2013-03-04 17:10:00,
2013-03-04 11:11:00,41.6,35.6,29.55,WNW,301,17.0,27.0,79,0.00,,---,0.00,253.00,VWS V14.01,2013-03-04 17:11:00,
2013-03-04 11:15:00,41.6,34.9,29.57,East,85,16.0,26.0,77,0.00,,---,0.00,172.00,VWS V14.01,2013-03-04 17:15:00,
2013-03-04 11:16:00,41.6,35.3,29.56,North,0,22.0,29.0,78,0.00,,---,0.00,252.00,VWS V14.01,2013-03-04 17:16:00,
2013-03-04 11:20:00,41.5,34.8,29.57,NW,326,17.0,26.0,77,0.00,,---,0.00,208.00,VWS V14.01,2013-03-04 17:20:00,
2013-03-04 11:21:00,41.6,35.3,29.56,North,0,22.0,27.0,78,0.00,,---,0.00,216.00,VWS V14.01,2013-03-04 17:21:00,
2013-03-04 11:25:00,41.6,34.9,29.57,NE,55,16.0,25.0,77,0.00,,---,0.00,206.00,VWS V14.01,2013-03-04 17:25:00,
2013-03-04 11:26:00,41.6,35.3,29.56,NNW,332,15.0,22.0,78,0.00,,---,0.00,257.00,VWS V14.01,2013-03-04 17:26:00,
2013-03-04 11:30:00,41.3,34.7,29.57,NE,45,19.0,28.0,77,0.00,,---,0.00,188.00,VWS V14.01,2013-03-04 17:30:00,
2013-03-04 11:31:00,41.6,35.3,29.56,NNW,332,26.0,26.0,78,0.00,,---,0.00,241.00,VWS V14.01,2013-03-04 17:31:00,
2013-03-04 11:35:00,41.6,34.9,29.57,ENE,62,18.0,21.0,77,0.00,,---,0.00,183.00,VWS V14.01,2013-03-04 17:35:00,
2013-03-04 11:36:00,41.6,35.3,29.56,North,0,13.0,25.0,78,0.00,,---,0.00,179.00,VWS V14.01,2013-03-04 17:36:00,
2013-03-04 11:40:00,41.6,34.9,29.57,East,99,18.0,25.0,77,0.00,,---,0.00,190.00,VWS V14.01,2013-03-04 17:40:00,
2013-03-04 11:41:00,41.6,35.3,29.56,NNW,332,20.0,24.0,78,0.00,,---,0.00,153.00,VWS V14.01,2013-03-04 17:41:00,
2013-03-04 11:45:00,41.6,34.9,29.57,North,0,19.0,22.0,77,0.00,,---,0.00,199.00,VWS V14.01,2013-03-04 17:45:00,
2013-03-04 11:46:00,41.3,35.0,29.56,North,354,14.0,25.0,78,0.00,,---,0.00,209.00,VWS V14.01,2013-03-04 17:46:00,
2013-03-04 11:50:00,41.5,34.8,29.57,North,0,14.0,27.0,77,0.00,,---,0.00,171.00,VWS V14.01,2013-03-04 17:50:00,
2013-03-04 11:52:00,41.5,35.2,29.56,North,0,26.0,26.0,78,0.00,,---,0.00,229.00,VWS V14.01,2013-03-04 17:52:00,
2013-03-04 11:55:00,41.6,34.9,29.57,NNW,346,17.0,21.0,77,0.00,,---,0.00,178.00,VWS V14.01,2013-03-04 17:55:00,
2013-03-04 11:57:00,41.5,35.2,29.56,NW,322,27.0,27.0,78,0.00,,---,0.00,260.00,VWS V14.01,2013-03-04 17:57:00,
2013-03-04 12:00:00,41.6,34.9,29.56,North,352,20.0,24.0,77,0.00,,---,0.00,215.00,VWS V14.01,2013-03-04 18:00:00,
2013-03-04 12:02:00,41.6,35.3,29.56,ENE,78,20.0,28.0,78,0.00,,---,0.00,246.00,VWS V14.01,2013-03-04 18:02:00,
2013-03-04 12:05:00,41.6,34.9,29.56,North,0,18.0,24.0,77,0.00,,---,0.00,206.00,VWS V14.01,2013-03-04 18:05:00,
2013-03-04 12:07:00,41.6,34.9,29.56,North,352,13.0,27.0,77,0.00,,---,0.00,248.00,VWS V14.01,2013-03-04 18:07:00,
2013-03-04 12:10:00,41.8,35.1,29.56,North,359,19.0,24.0,77,0.00,,---,0.00,211.00,VWS V14.01,2013-03-04 18:10:00,
2013-03-04 12:12:00,41.6,34.9,29.56,NNE,25,20.0,26.0,77,0.00,,---,0.00,194.00,VWS V14.01,2013-03-04 18:12:00,
2013-03-04 12:15:00,41.8,35.1,29.56,North,354,17.0,24.0,77,0.00,,---,0.00,202.00,VWS V14.01,2013-03-04 18:15:00,
2013-03-04 12:17:00,41.6,34.9,29.57,North,0,18.0,24.0,77,0.00,,---,0.00,208.00,VWS V14.01,2013-03-04 18:17:00,
2013-03-04 12:20:00,41.9,35.2,29.56,NNW,347,17.0,24.0,77,0.00,,---,0.00,199.00,VWS V14.01,2013-03-04 18:20:00,
2013-03-04 12:22:00,41.6,35.3,29.57,North,357,21.0,25.0,78,0.00,,---,0.00,208.00,VWS V14.01,2013-03-04 18:22:00,
2013-03-04 12:25:00,41.8,34.8,29.56,NW,315,18.0,26.0,76,0.00,,---,0.00,250.00,VWS V14.01,2013-03-04 18:25:00,
2013-03-04 12:27:00,41.5,34.8,29.57,North,0,22.0,28.0,77,0.00,,---,0.00,209.00,VWS V14.01,2013-03-04 18:27:00,
2013-03-04 12:29:00,41.3,34.7,29.57,NNE,24,19.0,19.0,77,0.00,,---,0.00,188.00,VWS V14.01,2013-03-04 18:29:00,
2013-03-04 12:30:00,41.3,34.7,29.57,North,357,12.0,19.0,77,0.00,,---,0.00,178.00,VWS V14.01,2013-03-04 18:30:00,
2013-03-04 12:35:00,41.6,34.9,29.57,NNW,328,16.0,22.0,77,0.00,,---,0.00,178.00,VWS V14.01,2013-03-04 18:35:00,
2013-03-04 12:40:00,42.3,35.3,29.55,NNW,332,16.0,25.0,76,0.00,,---,0.00,274.00,VWS V14.01,2013-03-04 18:40:00,
2013-03-04 12:41:00,41.6,34.9,29.57,North,357,18.0,22.0,77,0.00,,---,0.00,195.00,VWS V14.01,2013-03-04 18:41:00,
2013-03-04 12:45:00,42.3,35.0,29.55,South,185,22.0,25.0,75,0.00,,---,0.00,243.00,VWS V14.01,2013-03-04 18:45:00,
2013-03-04 12:46:00,41.6,34.9,29.57,NNW,346,21.0,27.0,77,0.00,,---,0.00,209.00,VWS V14.01,2013-03-04 18:46:00,
2013-03-04 12:50:00,42.5,35.2,29.55,North,359,14.0,24.0,75,0.00,,---,0.00,282.00,VWS V14.01,2013-03-04 18:50:00,
2013-03-04 12:51:00,41.5,34.8,29.57,NNW,339,11.0,21.0,77,0.00,,---,0.00,164.00,VWS V14.01,2013-03-04 18:51:00,
2013-03-04 12:55:00,42.6,35.2,29.55,NE,44,7.0,22.0,75,0.00,,---,0.00,296.00,VWS V14.01,2013-03-04 18:55:00,
2013-03-04 12:56:00,41.6,34.9,29.57,North,0,13.0,24.0,77,0.00,,---,0.00,178.00,VWS V14.01,2013-03-04 18:56:00,
2013-03-04 13:00:00,42.9,35.5,29.55,North,354,17.0,22.0,75,0.00,,---,0.00,426.00,VWS V14.01,2013-03-04 19:00:00,
2013-03-04 13:01:00,41.6,34.9,29.56,NNE,21,17.0,21.0,77,0.00,,---,0.00,213.00,VWS V14.01,2013-03-04 19:01:00,
2013-03-04 13:05:00,43.1,35.4,29.55,North,352,16.0,22.0,74,0.00,,---,0.00,347.00,VWS V14.01,2013-03-04 19:05:00,
2013-03-04 13:06:00,41.8,35.1,29.56,NNE,23,16.0,24.0,77,0.00,,---,0.00,204.00,VWS V14.01,2013-03-04 19:06:00,
2013-03-04 13:10:00,43.1,35.0,29.55,North,0,20.0,25.0,73,0.00,,---,0.00,287.00,VWS V14.01,2013-03-04 19:10:00,
2013-03-04 13:11:00,41.8,35.1,29.56,North,0,17.0,21.0,77,0.00,,---,0.00,206.00,VWS V14.01,2013-03-04 19:11:00,
2013-03-04 13:15:00,43.2,35.1,29.55,NE,54,21.0,21.0,73,0.00,,---,0.00,311.00,VWS V14.01,2013-03-04 19:15:00,
2013-03-04 13:16:00,41.8,35.1,29.56,North,357,19.0,24.0,77,0.00,,---,0.00,223.00,VWS V14.01,2013-03-04 19:16:00,
2013-03-04 13:20:00,43.2,34.8,29.55,North,357,14.0,25.0,72,0.00,,---,0.00,282.00,VWS V14.01,2013-03-04 19:20:00,
2013-03-04 13:21:00,41.9,35.2,29.56,NNE,13,19.0,24.0,77,0.00,,---,0.00,218.00,VWS V14.01,2013-03-04 19:21:00,
2013-03-04 13:25:00,43.2,34.8,29.55,NNE,21,18.0,25.0,72,0.00,,---,0.00,345.00,VWS V14.01,2013-03-04 19:25:00,
2013-03-04 13:27:00,41.9,34.9,29.56,ESE,106,18.0,25.0,76,0.00,,---,0.00,274.00,VWS V14.01,2013-03-04 19:27:00,
2013-03-04 13:30:00,43.5,35.1,29.55,NNE,24,12.0,20.0,72,0.00,,---,0.00,278.00,VWS V14.01,2013-03-04 19:30:00,
2013-03-04 13:32:00,41.8,34.8,29.55,North,0,19.0,22.0,76,0.00,,---,0.00,262.00,VWS V14.01,2013-03-04 19:32:00,
2013-03-04 13:35:00,43.5,35.1,29.55,South,179,18.0,20.0,72,0.00,,---,0.00,274.00,VWS V14.01,2013-03-04 19:35:00,
2013-03-04 13:37:00,42.1,35.1,29.55,North,3,16.0,25.0,76,0.00,,---,0.00,329.00,VWS V14.01,2013-03-04 19:37:00,
2013-03-04 13:40:00,43.5,35.1,29.55,NE,48,13.0,21.0,72,0.00,,---,0.00,259.00,VWS V14.01,2013-03-04 19:40:00,
2013-03-04 13:42:00,42.5,35.2,29.55,ENE,64,17.0,24.0,75,0.00,,---,0.00,257.00,VWS V14.01,2013-03-04 19:42:00,
2013-03-04 13:45:00,43.5,35.1,29.55,NE,47,17.0,21.0,72,0.00,,---,0.00,267.00,VWS V14.01,2013-03-04 19:45:00,
2013-03-04 13:47:00,42.3,35.0,29.55,SSE,165,15.0,24.0,75,0.00,,---,0.00,248.00,VWS V14.01,2013-03-04 19:47:00,
2013-03-04 13:50:00,43.3,34.9,29.55,NE,52,16.0,22.0,72,0.00,,---,0.00,255.00,VWS V14.01,2013-03-04 19:50:00,
2013-03-04 13:52:00,42.5,35.2,29.55,NNW,333,18.0,22.0,75,0.00,,---,0.00,329.00,VWS V14.01,2013-03-04 19:52:00,
2013-03-04 13:55:00,43.8,35.4,29.55,East,90,9.0,19.0,72,0.00,,---,0.00,396.00,VWS V14.01,2013-03-04 19:55:00,
2013-03-04 13:57:00,42.8,35.4,29.55,North,354,10.0,22.0,75,0.00,,---,0.00,343.00,VWS V14.01,2013-03-04 19:57:00,
2013-03-04 14:00:00,44.1,35.3,29.56,NNE,27,13.0,21.0,71,0.00,,---,0.00,408.00,VWS V14.01,2013-03-04 20:00:00,
2013-03-04 14:03:00,43.1,35.4,29.55,ENE,71,16.0,22.0,74,0.00,,---,0.00,340.00,VWS V14.01,2013-03-04 20:03:00,
2013-03-04 14:05:00,44.1,35.0,29.56,North,0,17.0,21.0,70,0.00,,---,0.00,341.00,VWS V14.01,2013-03-04 20:05:00,
2013-03-04 14:08:00,43.1,35.0,29.55,SE,127,18.0,25.0,73,0.00,,---,0.00,282.00,VWS V14.01,2013-03-04 20:08:00,
2013-03-04 14:10:00,43.9,34.8,29.56,North,0,19.0,22.0,70,0.00,,---,0.00,334.00,VWS V14.01,2013-03-04 20:10:00,
2013-03-04 14:13:00,43.2,35.1,29.55,NNE,23,17.0,21.0,73,0.00,,---,0.00,280.00,VWS V14.01,2013-03-04 20:13:00,
2013-03-04 14:15:00,43.9,35.1,29.57,NE,45,18.0,19.0,71,0.00,,---,0.00,278.00,VWS V14.01,2013-03-04 20:15:00,
2013-03-04 14:18:00,43.3,35.2,29.55,North,359,19.0,25.0,73,0.00,,---,0.00,282.00,VWS V14.01,2013-03-04 20:18:00,
2013-03-04 14:20:00,43.6,34.8,29.57,NE,37,18.0,24.0,71,0.00,,---,0.00,280.00,VWS V14.01,2013-03-04 20:20:00,
2013-03-04 14:23:00,43.3,34.9,29.55,ESE,107,25.0,25.0,72,0.00,,---,0.00,371.00,VWS V14.01,2013-03-04 20:23:00,
2013-03-04 14:25:00,43.3,34.5,29.57,North,354,16.0,21.0,71,0.00,,---,0.00,259.00,VWS V14.01,2013-03-04 20:25:00,
2013-03-04 14:28:00,43.5,35.1,29.55,NE,48,16.0,20.0,72,0.00,,---,0.00,282.00,VWS V14.01,2013-03-04 20:28:00,
2013-03-04 14:30:00,43.2,34.5,29.58,ESE,114,17.0,20.0,71,0.00,,---,0.00,209.00,VWS V14.01,2013-03-04 20:30:00,
2013-03-04 14:34:00,43.5,35.1,29.55,ENE,78,15.0,20.0,72,0.00,,---,0.00,274.00,VWS V14.01,2013-03-04 20:34:00,
2013-03-04 14:35:00,43.2,34.8,29.58,North,353,8.0,20.0,72,0.00,,---,0.00,176.00,VWS V14.01,2013-03-04 20:35:00,
2013-03-04 14:39:00,43.5,35.1,29.55,East,88,20.0,21.0,72,0.00,,---,0.00,259.00,VWS V14.01,2013-03-04 20:39:00,
2013-03-04 14:40:00,43.2,34.5,29.58,North,357,11.0,20.0,71,0.00,,---,0.00,164.00,VWS V14.01,2013-03-04 20:40:00,
2013-03-04 14:44:00,43.5,35.1,29.55,ENE,62,18.0,21.0,72,0.00,,---,0.00,267.00,VWS V14.01,2013-03-04 20:44:00,
2013-03-04 14:45:00,42.9,34.2,29.58,WNW,285,20.0,24.0,71,0.00,,---,0.00,150.00,VWS V14.01,2013-03-04 20:45:00,
2013-03-04 14:49:00,43.3,34.9,29.55,NE,52,16.0,22.0,72,0.00,,---,0.00,255.00,VWS V14.01,2013-03-04 20:49:00,
2013-03-04 14:50:00,42.9,34.2,29.58,North,356,18.0,24.0,71,0.00,,---,0.00,139.00,VWS V14.01,2013-03-04 20:50:00,
2013-03-04 14:54:00,43.9,35.5,29.55,ENE,75,11.0,11.0,72,0.00,,---,0.00,396.00,VWS V14.01,2013-03-04 20:54:00,
2013-03-04 14:55:00,42.9,34.5,29.58,North,359,14.0,22.0,72,0.00,,---,0.00,128.00,VWS V14.01,2013-03-04 20:55:00,
2013-03-04 14:59:00,44.1,35.3,29.56,ESE,109,10.0,17.0,71,0.00,,---,0.00,408.00,VWS V14.01,2013-03-04 20:59:00,
2013-03-04 15:00:00,42.8,34.4,29.59,North,353,11.0,22.0,72,0.00,,---,0.00,107.00,VWS V14.01,2013-03-04 21:00:00,
2013-03-04 15:04:00,44.1,35.3,29.56,North,354,13.0,21.0,71,0.00,,---,0.00,341.00,VWS V14.01,2013-03-04 21:04:00,
2013-03-04 15:05:00,42.8,34.4,29.59,North,0,19.0,22.0,72,0.00,,---,0.00,99.00,VWS V14.01,2013-03-04 21:05:00,
2013-03-04 15:09:00,43.9,34.8,29.56,North,0,16.0,19.0,70,0.00,,---,0.00,303.00,VWS V14.01,2013-03-04 21:09:00,
2013-03-04 15:10:00,42.6,34.2,29.59,NNW,344,18.0,24.0,72,0.00,,---,0.00,83.00,VWS V14.01,2013-03-04 21:10:00,
2013-03-04 15:15:00,43.9,34.8,29.57,NNW,329,13.0,18.0,70,0.00,,---,0.00,283.00,VWS V14.01,2013-03-04 21:15:00,
2013-03-04 15:20:00,43.5,34.7,29.57,North,10,12.0,21.0,71,0.00,,---,0.00,267.00,VWS V14.01,2013-03-04 21:20:00,
2013-03-04 15:25:00,43.3,34.5,29.57,ESE,116,18.0,20.0,71,0.00,,---,0.00,255.00,VWS V14.01,2013-03-04 21:25:00,
2013-03-04 15:30:00,43.2,34.5,29.58,North,354,14.0,19.0,71,0.00,,---,0.00,201.00,VWS V14.01,2013-03-04 21:30:00,
2013-03-04 15:35:00,43.2,34.8,29.58,North,357,11.0,18.0,72,0.00,,---,0.00,172.00,VWS V14.01,2013-03-04 21:35:00,
2013-03-04 15:40:00,43.2,34.8,29.58,North,0,12.0,19.0,72,0.00,,---,0.00,162.00,VWS V14.01,2013-03-04 21:40:00,
2013-03-04 15:45:00,42.1,34.1,29.64,NNE,21,16.0,27.0,73,0.00,,---,0.00,91.00,VWS V14.01,2013-03-04 21:45:00,
2013-03-04 15:46:00,42.9,34.2,29.58,NW,325,14.0,20.0,71,0.00,,---,0.00,144.00,VWS V14.01,2013-03-04 21:46:00,
2013-03-04 15:50:00,42.1,34.1,29.64,ESE,123,19.0,26.0,73,0.00,,---,0.00,99.00,VWS V14.01,2013-03-04 21:50:00,
2013-03-04 15:51:00,42.8,34.4,29.58,NNW,340,15.0,22.0,72,0.00,,---,0.00,135.00,VWS V14.01,2013-03-04 21:51:00,
2013-03-04 15:55:00,42.1,34.1,29.64,North,357,14.0,24.0,73,0.00,,---,0.00,67.00,VWS V14.01,2013-03-04 21:55:00,
2013-03-04 15:56:00,42.8,34.4,29.58,North,0,14.0,21.0,72,0.00,,---,0.00,120.00,VWS V14.01,2013-03-04 21:56:00,
2013-03-04 16:00:00,42.1,34.1,29.66,North,352,10.0,18.0,73,0.00,,---,0.00,35.00,VWS V14.01,2013-03-04 22:00:00,
2013-03-04 16:01:00,42.8,34.4,29.59,North,0,14.0,21.0,72,0.00,,---,0.00,102.00,VWS V14.01,2013-03-04 22:01:00,
2013-03-04 16:05:00,42.1,34.1,29.66,NE,34,13.0,19.0,73,0.00,,---,0.00,37.00,VWS V14.01,2013-03-04 22:05:00,
2013-03-04 16:06:00,42.6,34.2,29.59,North,0,14.0,20.0,72,0.00,,---,0.00,97.00,VWS V14.01,2013-03-04 22:06:00,
2013-03-04 16:10:00,41.9,33.9,29.66,North,357,16.0,27.0,73,0.00,,---,0.00,39.00,VWS V14.01,2013-03-04 22:10:00,
2013-03-04 16:11:00,42.5,34.1,29.59,NNW,344,16.0,21.0,72,0.00,,---,0.00,67.00,VWS V14.01,2013-03-04 22:11:00,
2013-03-04 16:15:00,41.6,33.6,29.67,NNW,340,24.0,27.0,73,0.00,,---,0.00,32.00,VWS V14.01,2013-03-04 22:15:00,
2013-03-04 16:16:00,42.3,33.9,29.61,NNW,330,10.0,19.0,72,0.00,,---,0.00,42.00,VWS V14.01,2013-03-04 22:16:00,
2013-03-04 16:20:00,41.5,33.5,29.67,NW,325,12.0,26.0,73,0.00,,---,0.00,32.00,VWS V14.01,2013-03-04 22:20:00,
2013-03-04 16:21:00,42.3,34.3,29.61,North,0,12.0,20.0,73,0.00,,---,0.00,33.00,VWS V14.01,2013-03-04 22:21:00,
2013-03-04 16:25:00,41.3,33.7,29.67,NNW,336,20.0,30.0,74,0.00,,---,0.00,30.00,VWS V14.01,2013-03-04 22:25:00,
2013-03-04 16:26:00,42.2,34.2,29.61,North,0,16.0,20.0,73,0.00,,---,0.00,74.00,VWS V14.01,2013-03-04 22:26:00,
2013-03-04 16:30:00,41.2,33.6,29.68,North,352,19.0,22.0,74,0.00,,---,0.00,25.00,VWS V14.01,2013-03-04 22:30:00,
2013-03-04 16:31:00,42.2,34.2,29.64,North,0,16.0,19.0,73,0.00,,---,0.00,76.00,VWS V14.01,2013-03-04 22:31:00,
2013-03-04 16:35:00,41.2,33.6,29.68,North,353,16.0,31.0,74,0.00,,---,0.00,53.00,VWS V14.01,2013-03-04 22:35:00,
2013-03-04 16:37:00,42.2,34.2,29.64,NW,322,17.0,20.0,73,0.00,,---,0.00,70.00,VWS V14.01,2013-03-04 22:37:00,
2013-03-04 16:40:00,41.2,33.6,29.68,North,359,21.0,25.0,74,0.00,,---,0.00,26.00,VWS V14.01,2013-03-04 22:40:00,
2013-03-04 16:42:00,42.2,34.2,29.64,NNW,333,22.0,27.0,73,0.00,,---,0.00,84.00,VWS V14.01,2013-03-04 22:42:00,
2013-03-04 16:45:00,41.1,33.8,29.70,North,0,17.0,27.0,75,0.00,,---,0.00,18.00,VWS V14.01,2013-03-04 22:45:00,
2013-03-04 16:47:00,42.1,34.1,29.64,NNW,340,21.0,26.0,73,0.00,,---,0.00,99.00,VWS V14.01,2013-03-04 22:47:00,
2013-03-04 16:50:00,40.9,33.6,29.70,North,357,22.0,28.0,75,0.00,,---,0.00,12.00,VWS V14.01,2013-03-04 22:50:00,
2013-03-04 16:52:00,42.1,34.1,29.64,North,6,13.0,24.0,73,0.00,,---,0.00,88.00,VWS V14.01,2013-03-04 22:52:00,
2013-03-04 16:55:00,40.9,33.6,29.70,ENE,61,24.0,31.0,75,0.00,,---,0.00,14.00,VWS V14.01,2013-03-04 22:55:00,
2013-03-04 16:57:00,42.1,34.1,29.64,West,267,12.0,18.0,73,0.00,,---,0.00,35.00,VWS V14.01,2013-03-04 22:57:00,
2013-03-04 17:00:00,40.8,33.5,29.70,SW,232,26.0,27.0,75,0.00,,---,0.00,12.00,VWS V14.01,2013-03-04 23:00:00,
2013-03-04 17:02:00,42.1,34.1,29.66,ESE,106,14.0,19.0,73,0.00,,---,0.00,35.00,VWS V14.01,2013-03-04 23:02:00,
2013-03-04 17:05:00,40.8,33.2,29.70,North,4,25.0,28.0,74,0.00,,---,0.00,7.00,VWS V14.01,2013-03-04 23:05:00,
2013-03-04 17:07:00,42.1,34.1,29.66,North,353,12.0,27.0,73,0.00,,---,0.00,44.00,VWS V14.01,2013-03-04 23:07:00,
2013-03-04 17:10:00,40.8,32.8,29.70,South,189,18.0,28.0,73,0.00,,---,0.00,0.00,VWS V14.01,2013-03-04 23:10:00,
2013-03-04 17:12:00,41.6,33.6,29.66,NNW,328,21.0,27.0,73,0.00,,---,0.00,33.00,VWS V14.01,2013-03-04 23:12:00,
2013-03-04 17:15:00,40.6,32.6,29.72,North,0,15.0,28.0,73,0.00,,---,0.00,0.00,VWS V14.01,2013-03-04 23:15:00,
2013-03-04 17:17:00,41.5,33.5,29.67,North,0,14.0,26.0,73,0.00,,---,0.00,32.00,VWS V14.01,2013-03-04 23:17:00,
2013-03-04 17:20:00,40.6,32.6,29.72,North,356,20.0,27.0,73,0.00,,---,0.00,0.00,VWS V14.01,2013-03-04 23:20:00,
2013-03-04 17:23:00,41.3,33.7,29.67,North,353,17.0,30.0,74,0.00,,---,0.00,30.00,VWS V14.01,2013-03-04 23:23:00,
2013-03-04 17:25:00,40.5,32.5,29.72,North,357,21.0,27.0,73,0.00,,---,0.00,0.00,VWS V14.01,2013-03-04 23:25:00,
2013-03-04 17:28:00,41.2,33.5,29.67,NE,34,13.0,21.0,74,0.00,,---,0.00,25.00,VWS V14.01,2013-03-04 23:28:00,
2013-03-04 17:30:00,40.5,32.5,29.73,NNE,20,16.0,27.0,73,0.00,,---,0.00,0.00,VWS V14.01,2013-03-04 23:30:00,
2013-03-04 17:33:00,41.2,33.5,29.68,North,356,19.0,31.0,74,0.00,,---,0.00,53.00,VWS V14.01,2013-03-04 23:33:00,
2013-03-04 17:35:00,40.3,32.3,29.73,North,0,19.0,27.0,73,0.00,,---,0.00,0.00,VWS V14.01,2013-03-04 23:35:00,
2013-03-04 17:38:00,41.2,33.5,29.68,NNW,335,16.0,25.0,74,0.00,,---,0.00,48.00,VWS V14.01,2013-03-04 23:38:00,
2013-03-04 17:40:00,40.2,32.6,29.73,East,89,19.0,24.0,74,0.00,,---,0.00,0.00,VWS V14.01,2013-03-04 23:40:00,
2013-03-04 17:43:00,41.1,33.8,29.68,North,356,18.0,27.0,75,0.00,,---,0.00,18.00,VWS V14.01,2013-03-04 23:43:00,
2013-03-04 17:45:00,40.2,32.6,29.75,NE,56,13.0,22.0,74,0.00,,---,0.00,0.00,VWS V14.01,2013-03-04 23:45:00,
2013-03-04 17:48:00,40.9,33.6,29.70,NNW,330,22.0,28.0,75,0.00,,---,0.00,12.00,VWS V14.01,2013-03-04 23:48:00,
2013-03-04 17:50:00,40.1,32.5,29.75,ESE,120,17.0,22.0,74,0.00,,---,0.00,0.00,VWS V14.01,2013-03-04 23:50:00,
2013-03-04 17:53:00,40.9,33.6,29.70,North,0,27.0,31.0,75,0.00,,---,0.00,14.00,VWS V14.01,2013-03-04 23:53:00,
2013-03-04 17:55:00,40.1,32.8,29.75,North,0,18.0,21.0,75,0.00,,---,0.00,0.00,VWS V14.01,2013-03-04 23:55:00,
2013-03-04 17:58:00,40.8,33.5,29.70,North,356,19.0,27.0,75,0.00,,---,0.00,12.00,VWS V14.01,2013-03-04 23:58:00,
2013-03-04 18:00:00,40.1,32.8,29.77,East,96,18.0,21.0,75,0.00,,---,0.00,0.00,VWS V14.01,2013-03-05 00:00:00,
2013-03-04 18:03:00,40.8,33.2,29.70,NNE,31,24.0,26.0,74,0.00,,---,0.00,12.00,VWS V14.01,2013-03-05 00:03:00,
2013-03-04 18:05:00,40.1,32.8,29.77,North,6,15.0,24.0,75,0.00,,---,0.00,0.00,VWS V14.01,2013-03-05 00:05:00,
2013-03-04 18:08:00,40.8,32.8,29.70,NNW,332,20.0,28.0,73,0.00,,---,0.00,0.00,VWS V14.01,2013-03-05 00:08:00,
2013-03-04 18:10:00,39.9,32.6,29.77,North,0,18.0,21.0,75,0.00,,---,0.00,0.00,VWS V14.01,2013-03-05 00:10:00,
2013-03-04 18:14:00,40.6,32.6,29.72,East,89,18.0,28.0,73,0.00,,---,0.00,0.00,VWS V14.01,2013-03-05 00:14:00,
2013-03-04 18:15:00,39.9,32.6,29.79,North,0,17.0,21.0,75,0.00,,---,0.00,0.00,VWS V14.01,2013-03-05 00:15:00,
2013-03-04 18:19:00,40.6,32.6,29.72,North,356,25.0,27.0,73,0.00,,---,0.00,0.00,VWS V14.01,2013-03-05 00:19:00,
2013-03-04 18:20:00,39.9,32.6,29.79,North,0,9.0,20.0,75,0.00,,---,0.00,0.00,VWS V14.01,2013-03-05 00:20:00,
2013-03-04 18:24:00,40.5,32.5,29.72,North,0,25.0,27.0,73,0.00,,---,0.00,0.00,VWS V14.01,2013-03-05 00:24:00,
2013-03-04 18:25:00,39.9,32.6,29.79,North,4,15.0,20.0,75,0.00,,---,0.00,0.00,VWS V14.01,2013-03-05 00:25:00,
2013-03-04 18:29:00,40.5,32.5,29.73,SE,124,24.0,27.0,73,0.00,,---,0.00,0.00,VWS V14.01,2013-03-05 00:29:00,
2013-03-04 18:30:00,39.8,32.5,29.80,SE,136,17.0,20.0,75,0.00,,---,0.00,0.00,VWS V14.01,2013-03-05 00:30:00,
2013-03-04 18:34:00,40.3,32.3,29.73,North,0,19.0,27.0,73,0.00,,---,0.00,0.00,VWS V14.01,2013-03-05 00:34:00,
2013-03-04 18:35:00,39.8,32.5,29.80,North,0,13.0,18.0,75,0.00,,---,0.00,0.00,VWS V14.01,2013-03-05 00:35:00,
2013-03-04 18:39:00,40.2,32.6,29.73,East,89,19.0,24.0,74,0.00,,---,0.00,0.00,VWS V14.01,2013-03-05 00:39:00,
2013-03-04 18:40:00,39.8,32.9,29.80,North,0,12.0,17.0,76,0.00,,---,0.00,0.00,VWS V14.01,2013-03-05 00:40:00,
2013-03-04 18:44:00,40.2,32.6,29.75,NE,56,13.0,22.0,74,0.00,,---,0.00,0.00,VWS V14.01,2013-03-05 00:44:00,
2013-03-04 18:45:00,39.8,32.9,29.81,East,93,12.0,17.0,76,0.00,,---,0.00,0.00,VWS V14.01,2013-03-05 00:45:00,
2013-03-04 18:49:00,40.1,32.5,29.75,ESE,120,17.0,22.0,74,0.00,,---,0.00,0.00,VWS V14.01,2013-03-05 00:49:00,
2013-03-04 18:50:00,39.6,33.0,29.81,NE,49,9.0,18.0,77,0.00,,---,0.00,0.00,VWS V14.01,2013-03-05 00:50:00,
2013-03-04 18:54:00,40.1,32.8,29.75,North,0,18.0,21.0,75,0.00,,---,0.00,0.00,VWS V14.01,2013-03-05 00:54:00,
2013-03-04 18:55:00,39.6,33.0,29.81,North,1,10.0,15.0,77,0.00,,---,0.00,0.00,VWS V14.01,2013-03-05 00:55:00,
2013-03-04 18:59:00,40.1,32.8,29.77,SE,134,21.0,21.0,75,0.00,,---,0.00,0.00,VWS V14.01,2013-03-05 00:59:00,
2013-03-04 19:00:00,39.6,33.3,29.83,NW,323,11.0,18.0,78,0.00,,---,0.00,0.00,VWS V14.01,2013-03-05 01:00:00,
2013-03-04 19:04:00,40.1,32.8,29.77,NW,322,11.0,15.0,75,0.00,,---,0.00,0.00,VWS V14.01,2013-03-05 01:04:00,
2013-03-04 19:05:00,39.6,33.3,29.83,North,357,12.0,14.0,78,0.00,,---,0.00,0.00,VWS V14.01,2013-03-05 01:05:00,
2013-03-04 19:09:00,39.9,32.6,29.77,ENE,73,19.0,19.0,75,0.00,,---,0.00,0.00,VWS V14.01,2013-03-05 01:09:00,
2013-03-04 19:10:00,39.6,33.3,29.83,North,350,10.0,18.0,78,0.00,,---,0.00,0.00,VWS V14.01,2013-03-05 01:10:00,
2013-03-04 19:14:00,39.9,32.6,29.79,North,0,12.0,20.0,75,0.00,,---,0.00,0.00,VWS V14.01,2013-03-05 01:14:00,
2013-03-04 19:15:00,39.5,33.5,29.84,NNW,343,18.0,18.0,79,0.00,,---,0.00,0.00,VWS V14.01,2013-03-05 01:15:00,
2013-03-04 19:19:00,39.9,32.6,29.79,ENE,76,12.0,16.0,75,0.00,,---,0.00,0.00,VWS V14.01,2013-03-05 01:19:00,
2013-03-04 19:20:00,39.6,33.6,29.84,North,0,7.0,20.0,79,0.00,,---,0.00,0.00,VWS V14.01,2013-03-05 01:20:00,
2013-03-04 19:24:00,39.8,32.5,29.79,ESE,117,13.0,17.0,75,0.00,,---,0.00,0.00,VWS V14.01,2013-03-05 01:24:00,
2013-03-04 19:25:00,39.6,34.0,29.84,North,359,7.0,22.0,80,0.00,,---,0.00,0.00,VWS V14.01,2013-03-05 01:25:00,
2013-03-04 19:30:00,39.8,32.5,29.80,North,0,12.0,18.0,75,0.00,,---,0.00,0.00,VWS V14.01,2013-03-05 01:30:00,
2013-03-04 19:35:00,39.8,32.5,29.80,NNW,343,15.0,17.0,75,0.00,,---,0.00,0.00,VWS V14.01,2013-03-05 01:35:00,
2013-03-04 19:40:00,39.8,32.9,29.80,South,186,12.0,16.0,76,0.00,,---,0.00,0.00,VWS V14.01,2013-03-05 01:40:00,
2013-03-04 19:45:00,39.6,33.0,29.81,NNW,330,8.0,13.0,77,0.00,,---,0.00,0.00,VWS V14.01,2013-03-05 01:45:00,
2013-03-04 19:50:00,39.6,33.0,29.81,North,0,10.0,13.0,77,0.00,,---,0.00,0.00,VWS V14.01,2013-03-05 01:50:00,
2013-03-04 19:55:00,39.6,33.3,29.81,NW,316,14.0,18.0,78,0.00,,---,0.00,0.00,VWS V14.01,2013-03-05 01:55:00,
2013-03-04 20:00:00,39.6,33.3,29.83,SW,215,12.0,13.0,78,0.00,,---,0.00,0.00,VWS V14.01,2013-03-05 02:00:00,
2013-03-04 20:05:00,39.6,33.3,29.83,North,0,6.0,14.0,78,0.00,,---,0.00,0.00,VWS V14.01,2013-03-05 02:05:00,
2013-03-04 20:10:00,37.0,33.5,29.89,West,270,17.0,25.0,87,0.02,,---,0.02,0.00,VWS V14.01,2013-03-05 02:10:00,
2013-03-04 20:11:00,39.6,33.3,29.83,North,359,11.0,12.0,78,0.00,,---,0.00,0.00,VWS V14.01,2013-03-05 02:11:00,
2013-03-04 20:15:00,37.0,33.5,29.88,NNW,343,14.0,17.0,87,0.02,,---,0.02,0.00,VWS V14.01,2013-03-05 02:15:00,
2013-03-04 20:16:00,39.6,33.6,29.84,NNW,342,14.0,18.0,79,0.00,,---,0.00,0.00,VWS V14.01,2013-03-05 02:16:00,
2013-03-04 20:20:00,36.9,33.7,29.88,North,0,13.0,17.0,88,0.03,,---,0.03,0.00,VWS V14.01,2013-03-05 02:20:00,
2013-03-04 20:21:00,39.6,34.0,29.84,North,349,10.0,21.0,80,0.00,,---,0.00,0.00,VWS V14.01,2013-03-05 02:21:00,
2013-03-04 20:25:00,36.8,33.6,29.88,NNW,340,10.0,19.0,88,0.03,,---,0.03,0.00,VWS V14.01,2013-03-05 02:25:00,
2013-03-04 20:26:00,39.6,34.0,29.84,NNW,342,20.0,22.0,80,0.00,,---,0.00,0.00,VWS V14.01,2013-03-05 02:26:00,
2013-03-04 20:30:00,36.8,33.9,29.88,ENE,59,11.0,16.0,89,0.03,,---,0.03,0.00,VWS V14.01,2013-03-05 02:30:00,
2013-03-04 20:31:00,39.3,34.0,29.85,NNW,335,13.0,22.0,81,0.00,,---,0.00,0.00,VWS V14.01,2013-03-05 02:31:00,
2013-03-04 20:35:00,36.6,33.7,29.88,North,349,16.0,16.0,89,0.03,,---,0.03,0.00,VWS V14.01,2013-03-05 02:35:00,
2013-03-04 20:36:00,39.2,34.2,29.85,North,349,11.0,19.0,82,0.00,,---,0.00,0.00,VWS V14.01,2013-03-05 02:36:00,
2013-03-04 20:40:00,36.6,33.7,29.88,North,354,8.0,16.0,89,0.03,,---,0.03,0.00,VWS V14.01,2013-03-05 02:40:00,
2013-03-04 20:42:00,38.8,34.1,29.85,North,353,20.0,25.0,83,0.00,,---,0.00,0.00,VWS V14.01,2013-03-05 02:42:00,
2013-03-04 20:45:00,36.6,34.0,29.88,SE,130,7.0,12.0,90,0.03,,---,0.03,0.00,VWS V14.01,2013-03-05 02:45:00,
2013-03-04 20:47:00,38.3,33.9,29.86,North,0,18.0,24.0,84,0.00,,---,0.00,0.00,VWS V14.01,2013-03-05 02:47:00,
2013-03-04 20:50:00,36.6,34.0,29.88,North,0,7.0,11.0,90,0.03,,---,0.03,0.00,VWS V14.01,2013-03-05 02:50:00,
2013-03-04 20:52:00,38.0,33.9,29.86,NNW,346,12.0,24.0,85,0.01,,---,0.01,0.00,VWS V14.01,2013-03-05 02:52:00,
2013-03-04 20:55:00,36.5,33.8,29.88,North,0,5.0,11.0,90,0.03,,---,0.03,0.00,VWS V14.01,2013-03-05 02:55:00,
2013-03-04 20:57:00,37.6,33.5,29.86,North,0,14.0,25.0,85,0.01,,---,0.01,0.00,VWS V14.01,2013-03-05 02:57:00,
2013-03-04 21:00:00,36.5,34.1,29.88,North,0,5.0,10.0,91,0.02,,---,0.03,0.00,VWS V14.01,2013-03-05 03:00:00,
2013-03-04 21:02:00,37.3,33.5,29.89,West,277,8.0,19.0,86,0.01,,---,0.01,0.00,VWS V14.01,2013-03-05 03:02:00,
2013-03-04 21:05:00,36.5,34.1,29.88,NW,304,7.0,11.0,91,0.02,,---,0.03,0.00,VWS V14.01,2013-03-05 03:05:00,
2013-03-04 21:07:00,37.2,33.4,29.89,North,0,17.0,25.0,86,0.02,,---,0.02,0.00,VWS V14.01,2013-03-05 03:07:00,
2013-03-04 21:10:00,36.5,34.1,29.88,North,349,5.0,9.0,91,0.01,,---,0.03,0.00,VWS V14.01,2013-03-05 03:10:00,
2013-03-04 21:12:00,37.0,33.5,29.89,WSW,254,7.0,17.0,87,0.02,,---,0.02,0.00,VWS V14.01,2013-03-05 03:12:00,
2013-03-04 21:15:00,36.5,34.1,29.89,NNW,340,6.0,9.0,91,0.01,,---,0.03,0.00,VWS V14.01,2013-03-05 03:15:00,
2013-03-04 21:17:00,36.9,33.7,29.88,WSW,247,12.0,17.0,88,0.02,,---,0.02,0.00,VWS V14.01,2013-03-05 03:17:00,
2013-03-04 21:20:00,36.3,33.9,29.89,North,0,5.0,7.0,91,0.01,,---,0.03,0.00,VWS V14.01,2013-03-05 03:20:00,
2013-03-04 21:23:00,36.8,33.6,29.88,NNW,344,7.0,19.0,88,0.03,,---,0.03,0.00,VWS V14.01,2013-03-05 03:23:00,
2013-03-04 21:25:00,36.3,33.9,29.89,WNW,289,7.0,8.0,91,0.00,,---,0.03,0.00,VWS V14.01,2013-03-05 03:25:00,
2013-03-04 21:28:00,36.8,33.9,29.88,North,0,16.0,16.0,89,0.03,,---,0.03,0.00,VWS V14.01,2013-03-05 03:28:00,
2013-03-04 21:30:00,36.3,33.9,29.89,NW,323,6.0,8.0,91,0.00,,---,0.03,0.00,VWS V14.01,2013-03-05 03:30:00,
2013-03-04 21:33:00,36.6,33.7,29.88,SSW,212,8.0,13.0,89,0.03,,---,0.03,0.00,VWS V14.01,2013-03-05 03:33:00,
2013-03-04 21:35:00,36.2,33.8,29.89,NNW,344,6.0,7.0,91,0.00,,---,0.03,0.00,VWS V14.01,2013-03-05 03:35:00,
2013-03-04 21:38:00,36.6,33.7,29.88,North,359,7.0,16.0,89,0.03,,---,0.03,0.00,VWS V14.01,2013-03-05 03:38:00,
2013-03-04 21:40:00,36.2,34.1,29.89,NW,326,5.0,6.0,92,0.00,,---,0.03,0.00,VWS V14.01,2013-03-05 03:40:00,
2013-03-04 21:43:00,36.6,34.0,29.88,North,1,10.0,12.0,90,0.03,,---,0.03,0.00,VWS V14.01,2013-03-05 03:43:00,
2013-03-04 21:45:00,36.0,33.9,29.88,North,0,3.0,7.0,92,0.00,,---,0.03,0.00,VWS V14.01,2013-03-05 03:45:00,
2013-03-04 21:48:00,36.6,34.0,29.88,NNW,335,7.0,11.0,90,0.03,,---,0.03,0.00,VWS V14.01,2013-03-05 03:48:00,
2013-03-04 21:50:00,35.9,33.8,29.88,NNW,339,5.0,7.0,92,0.00,,---,0.03,0.00,VWS V14.01,2013-03-05 03:50:00,
2013-03-04 21:53:00,36.5,33.8,29.88,SW,229,9.0,11.0,90,0.03,,---,0.03,0.00,VWS V14.01,2013-03-05 03:53:00,
2013-03-04 21:55:00,35.8,33.7,29.88,WNW,289,4.0,7.0,92,0.00,,---,0.03,0.00,VWS V14.01,2013-03-05 03:55:00,
2013-03-04 21:58:00,36.5,34.1,29.88,NNW,330,7.0,10.0,91,0.02,,---,0.03,0.00,VWS V14.01,2013-03-05 03:58:00,
2013-03-04 22:00:00,35.8,33.7,29.88,WNW,288,6.0,8.0,92,0.00,,---,0.03,0.00,VWS V14.01,2013-03-05 04:00:00,
2013-03-04 22:03:00,36.5,34.1,29.88,North,0,4.0,11.0,91,0.02,,---,0.03,0.00,VWS V14.01,2013-03-05 04:03:00,
2013-03-04 22:05:00,35.8,33.7,29.88,North,0,11.0,11.0,92,0.00,,---,0.03,0.00,VWS V14.01,2013-03-05 04:05:00,
2013-03-04 22:09:00,36.5,34.1,29.88,North,352,5.0,9.0,91,0.01,,---,0.03,0.00,VWS V14.01,2013-03-05 04:09:00,
2013-03-04 22:10:00,36.0,33.9,29.88,NW,313,7.0,14.0,92,0.00,,---,0.03,0.00,VWS V14.01,2013-03-05 04:10:00,
2013-03-04 22:14:00,36.3,33.9,29.89,West,265,4.0,9.0,91,0.01,,---,0.03,0.00,VWS V14.01,2013-03-05 04:14:00,
2013-03-04 22:15:00,35.9,33.8,29.88,NW,304,13.0,18.0,92,0.00,,---,0.03,0.00,VWS V14.01,2013-03-05 04:15:00,
2013-03-04 22:19:00,36.3,33.9,29.89,North,0,5.0,7.0,91,0.01,,---,0.03,0.00,VWS V14.01,2013-03-05 04:19:00,
2013-03-04 22:20:00,35.6,33.5,29.88,North,353,12.0,20.0,92,0.00,,---,0.03,0.00,VWS V14.01,2013-03-05 04:20:00,
2013-03-04 22:24:00,36.3,33.9,29.89,WNW,289,7.0,8.0,91,0.00,,---,0.03,0.00,VWS V14.01,2013-03-05 04:24:00,
2013-03-04 22:25:00,35.5,32.9,29.88,NNW,343,9.0,21.0,90,0.00,,---,0.03,0.00,VWS V14.01,2013-03-05 04:25:00,
2013-03-04 22:29:00,36.3,33.9,29.89,NW,323,6.0,8.0,91,0.00,,---,0.03,0.00,VWS V14.01,2013-03-05 04:29:00,
2013-03-04 22:30:00,35.6,32.4,29.89,NW,306,14.0,24.0,88,0.00,,---,0.03,0.00,VWS V14.01,2013-03-05 04:30:00,
2013-03-04 22:34:00,36.2,33.8,29.89,North,349,5.0,6.0,91,0.00,,---,0.03,0.00,VWS V14.01,2013-03-05 04:34:00,
2013-03-04 22:35:00,35.8,31.5,29.89,WNW,292,18.0,21.0,84,0.00,,---,0.03,0.00,VWS V14.01,2013-03-05 04:35:00,
2013-03-04 22:39:00,36.2,34.1,29.89,NNW,340,5.0,5.0,92,0.00,,---,0.03,0.00,VWS V14.01,2013-03-05 04:39:00,
2013-03-04 22:40:00,35.9,30.3,29.89,NW,311,12.0,24.0,80,0.00,,---,0.03,0.00,VWS V14.01,2013-03-05 04:40:00,
2013-03-04 22:44:00,36.0,33.9,29.88,WNW,301,5.0,5.0,92,0.00,,---,0.03,0.00,VWS V14.01,2013-03-05 04:44:00,
2013-03-04 22:45:00,36.2,28.7,29.89,North,352,13.0,22.0,74,0.00,,---,0.03,0.00,VWS V14.01,2013-03-05 04:45:00,
2013-03-04 22:50:00,35.9,33.8,29.88,NNW,344,7.0,7.0,92,0.00,,---,0.03,0.00,VWS V14.01,2013-03-05 04:50:00,
2013-03-04 22:55:00,35.8,33.7,29.88,WNW,296,6.0,7.0,92,0.00,,---,0.03,0.00,VWS V14.01,2013-03-05 04:55:00,
2013-03-04 23:00:00,35.8,33.7,29.88,NW,308,6.0,8.0,92,0.00,,---,0.03,0.00,VWS V14.01,2013-03-05 05:00:00,
2013-03-04 23:01:00,35.8,33.7,29.88,NNW,337,10.0,10.0,92,0.00,,---,0.03,0.00,VWS V14.01,2013-03-05 05:01:00,
2013-03-04 23:05:00,36.5,25.1,29.91,North,0,11.0,26.0,63,0.00,,---,0.00,0.00,VWS V14.01,2013-03-05 05:05:00,
2013-03-04 23:06:00,35.9,34.1,29.88,WNW,298,6.0,11.0,93,0.00,,---,0.03,0.00,VWS V14.01,2013-03-05 05:06:00,
2013-03-04 23:10:00,36.5,24.3,29.91,WNW,292,19.0,30.0,61,0.00,,---,0.00,0.00,VWS V14.01,2013-03-05 05:10:00,
2013-03-04 23:11:00,35.9,33.8,29.88,NNW,346,10.0,16.0,92,0.00,,---,0.03,0.00,VWS V14.01,2013-03-05 05:11:00,
2013-03-04 23:15:00,36.5,24.3,29.93,NW,325,20.0,26.0,61,0.00,,---,0.00,0.00,VWS V14.01,2013-03-05 05:15:00,
2013-03-04 23:16:00,35.8,33.7,29.88,West,270,11.0,17.0,92,0.00,,---,0.03,0.00,VWS V14.01,2013-03-05 05:16:00,
2013-03-04 23:20:00,36.3,24.2,29.93,NW,322,26.0,26.0,61,0.00,,---,0.00,0.00,VWS V14.01,2013-03-05 05:20:00,
2013-03-04 23:21:00,35.5,33.1,29.88,NW,313,18.0,20.0,91,0.00,,---,0.03,0.00,VWS V14.01,2013-03-05 05:21:00,
2013-03-04 23:25:00,36.2,24.1,29.93,NNW,347,25.0,26.0,61,0.00,,---,0.00,0.00,VWS V14.01,2013-03-05 05:25:00,
2013-03-04 23:26:00,35.5,32.6,29.88,WNW,302,10.0,19.0,89,0.00,,---,0.03,0.00,VWS V14.01,2013-03-05 05:26:00,
2013-03-04 23:30:00,36.2,24.1,29.94,North,357,17.0,31.0,61,0.00,,---,0.00,0.00,VWS V14.01,2013-03-05 05:30:00,
2013-03-04 23:31:00,35.8,32.0,29.89,NW,312,19.0,19.0,86,0.00,,---,0.03,0.00,VWS V14.01,2013-03-05 05:31:00,
2013-03-04 23:35:00,36.0,24.3,29.94,NW,325,11.0,26.0,62,0.00,,---,0.00,0.00,VWS V14.01,2013-03-05 05:35:00,
2013-03-04 23:36:00,35.9,31.0,29.89,NNW,344,18.0,21.0,82,0.00,,---,0.03,0.00,VWS V14.01,2013-03-05 05:36:00,
2013-03-04 23:40:00,35.8,24.1,29.94,North,349,11.0,22.0,62,0.00,,---,0.00,0.00,VWS V14.01,2013-03-05 05:40:00,
2013-03-04 23:41:00,36.0,29.5,29.89,WNW,295,11.0,21.0,77,0.00,,---,0.03,0.00,VWS V14.01,2013-03-05 05:41:00,
2013-03-04 23:45:00,35.5,23.8,29.93,NNW,330,17.0,22.0,62,0.00,,---,0.00,0.00,VWS V14.01,2013-03-05 05:45:00,
2013-03-04 23:46:00,36.3,28.1,29.89,North,359,17.0,20.0,72,0.00,,---,0.03,0.00,VWS V14.01,2013-03-05 05:46:00,
2013-03-04 23:50:00,35.2,23.1,29.93,North,354,19.0,28.0,61,0.00,,---,0.00,0.00,VWS V14.01,2013-03-05 05:50:00,
2013-03-04 23:51:00,36.5,27.0,29.89,NNW,329,20.0,21.0,68,0.00,,---,0.03,0.00,VWS V14.01,2013-03-05 05:51:00,
2013-03-04 23:55:00,34.9,22.4,29.93,NW,325,20.0,27.0,60,0.00,,---,0.00,0.00,VWS V14.01,2013-03-05 05:55:00,
2013-03-04 23:56:00,36.5,26.2,29.89,NW,318,26.0,26.0,66,0.00,,---,0.03,0.00,VWS V14.01,2013-03-05 05:56:00,